FW2530 Weather Reports


Display with metric or nautical units.
time (UTC)temp
F
wind
direction
speed
MPH
gust
MPH
rain 1hr
in
rain 24hr
in
rain mn
in
humidity
%
barometer
mb
20260509205024 54 336 3.0 7.0 0.18 0.18 0.18 84 1002.0
20260509204504 53 316 2.0 8.0 0.18 0.18 0.18 85 1002.1
20260509204003 53 350 2.0 4.0 0.18 0.18 0.18 84 1002.1
20260509203503 53 303 4.0 8.0 0.18 0.18 0.18 83 1002.1
20260509203003 54 308 6.0 13.0 0.17 0.17 0.17 82 1002.3
20260509202524 56 349 8.0 19.0 0.17 0.17 0.17 81 1002.4
20260509202003 58 360 10.0 21.0 0.16 0.16 0.16 79 1002.4
20260509201503 61 341 8.0 28.0 0.03 0.03 0.03 78 1002.7
20260509201003 61 282 6.0 15.0 0.00 0.00 0.00 77 1002.0
20260509200503 61 254 6.0 19.0 0.00 0.00 0.00 75 1001.5
20260509200004 61 221 6.0 15.0 0.00 0.00 0.00 74 1001.4
20260509195525 61 230 5.0 13.0 0.00 0.00 0.00 74 1001.3
20260509195024 61 326 5.0 15.0 0.00 0.00 0.00 74 1001.3
20260509194503 61 252 5.0 20.0 0.00 0.00 0.00 74 1001.3
20260509194003 61 279 5.0 16.0 0.00 0.00 0.00 74 1001.2
20260509193503 61 264 7.0 20.0 0.00 0.00 0.00 74 1001.3
20260509193004 61 275 10.0 17.0 0.00 0.00 0.00 74 1001.4
20260509192503 62 353 12.0 20.0 0.00 0.00 0.00 74 1001.3
20260509192025 62 358 11.0 29.0 0.00 0.00 0.00 73 1001.2
20260509191524 62 360 7.0 21.0 0.00 0.00 0.00 73 1001.3
20260509191003 62 360 7.0 12.0 0.00 0.00 0.00 73 1001.6
20260509190503 62 360 10.0 20.0 0.00 0.00 0.00 73 1001.7
20260509190003 62 360 10.0 29.0 0.00 0.00 0.00 73 1001.6
20260509185503 62 360 10.0 20.0 0.00 0.00 0.00 73 1001.7
20260509185003 62 360 11.0 21.0 0.00 0.00 0.00 75 1001.5
20260509184503 62 348 12.0 20.0 0.00 0.00 0.00 77 1001.5
20260509184003 62 226 11.0 21.0 0.00 0.00 0.00 77 1001.6
20260509183503 62 212 11.0 19.0 0.00 0.00 0.00 75 1001.6
20260509183003 62 212 10.0 24.0 0.00 0.00 0.00 75 1001.7
20260509182503 62 211 9.0 27.0 0.00 0.00 0.00 75 1001.8
20260509182003 62 214 9.0 23.0 0.00 0.00 0.00 74 1001.8
20260509181503 62 216 8.0 17.0 0.00 0.00 0.00 75 1001.8
20260509181003 62 216 8.0 15.0 0.00 0.00 0.00 77 1001.9
20260509180503 62 221 7.0 15.0 0.00 0.00 0.00 77 1002.1
20260509180003 62 219 7.0 13.0 0.00 0.00 0.00 75 1002.1
20260509175503 62 213 6.0 16.0 0.00 0.00 0.00 74 1002.4
20260509175003 62 351 7.0 8.0 0.00 0.00 0.00 74 1002.6
20260509174524 62 357 10.0 23.0 0.00 0.00 0.00 74 1002.4
20260509174003 63 240 11.0 24.0 0.00 0.00 0.00 71 1002.0
20260509173503 64 212 11.0 28.0 0.00 0.00 0.00 70 1001.8
20260509173003 65 199 11.0 24.0 0.00 0.00 0.00 72 1001.9
20260509172503 65 196 12.0 27.0 0.00 0.00 0.00 73 1001.8
20260509172003 65 208 12.0 20.0 0.00 0.00 0.00 74 1001.8
20260509171503 65 214 11.0 21.0 0.00 0.00 0.00 74 1001.9
20260509171003 64 202 10.0 19.0 0.00 0.00 0.00 75 1002.1
20260509170504 65 196 10.0 19.0 0.00 0.00 0.00 73 1002.3
20260509170003 65 198 9.0 20.0 0.00 0.00 0.00 73 1002.4
20260509165504 66 192 10.0 16.0 0.00 0.00 0.00 73 1002.4
20260509165024 65 184 11.0 19.0 0.00 0.00 0.00 52 1002.3
20260509164503 65 181 11.0 24.0 0.00 0.00 0.00 72 1002.2
20260509164003 66 189 9.0 20.0 0.00 0.00 0.00 70 1002.5
20260509163504 66 211 8.0 15.0 0.00 0.00 0.00 70 1002.6
20260509163004 66 214 9.0 15.0 0.00 0.00 0.00 68 1002.7
20260509162525 66 201 10.0 19.0 0.00 0.00 0.00 68 1002.8
20260509162004 66 205 7.0 20.0 0.00 0.00 0.00 67 1002.7
20260509161525 66 222 4.0 8.0 0.00 0.00 0.00 67 1003.0
20260509161004 66 202 4.0 9.0 0.00 0.00 0.00 66 1003.1
20260509160504 65 222 4.0 8.0 0.00 0.00 0.00 66 1002.9
20260509160004 64 261 3.0 11.0 0.00 0.00 0.00 68 1003.3
20260509155504 64 239 4.0 13.0 0.00 0.00 0.00 66 1003.5
20260509155004 64 268 4.0 12.0 0.00 0.00 0.00 67 1003.9
20260509154526 64 293 3.0 11.0 0.00 0.00 0.00 66 1003.9
20260509154004 64 247 3.0 15.0 0.00 0.00 0.00 67 1004.1
20260509153504 64 218 4.0 13.0 0.00 0.00 0.00 67 1004.0
20260509153004 65 228 4.0 9.0 0.00 0.00 0.00 66 1004.0
20260509152504 65 222 5.0 13.0 0.00 0.00 0.00 42 1003.8
20260509152004 65 216 7.0 12.0 0.00 0.00 0.00 69 1003.8
20260509151504 64 217 9.0 19.0 0.00 0.00 0.00 68 1003.7
20260509151005 64 220 8.0 19.0 0.00 0.00 0.00 68 1003.8
20260509150504 64 215 8.0 21.0 0.00 0.00 0.00 68 1003.8
20260509150004 64 207 9.0 20.0 0.00 0.00 0.00 48 1003.7
20260509145504 63 210 7.0 17.0 0.00 0.00 0.00 69 1003.6
20260509145004 63 216 4.0 12.0 0.00 0.00 0.00 70 1003.7
20260509144504 63 216 4.0 11.0 0.00 0.00 0.00 71 1004.0
20260509144025 63 223 5.0 15.0 0.00 0.00 0.00 72 1004.1
20260509143504 62 212 6.0 11.0 0.00 0.00 0.00 73 1004.1
20260509143004 62 203 7.0 13.0 0.00 0.00 0.00 74 1003.8
20260509142504 61 206 7.0 16.0 0.00 0.00 0.00 73 1003.7
20260509142004 61 209 6.0 16.0 0.00 0.00 0.00 73 1003.9
20260509141504 60 217 4.0 15.0 0.00 0.00 0.00 74 1004.0
20260509141025 60 236 3.0 11.0 0.00 0.00 0.00 75 1004.0
20260509140504 59 241 3.0 7.0 0.00 0.00 0.00 75 1004.0
20260509140005 59 229 3.0 5.0 0.00 0.00 0.00 75 1004.1
20260509135504 58 230 4.0 13.0 0.00 0.00 0.00 75 1004.3
20260509135004 58 223 5.0 9.0 0.00 0.00 0.00 75 1004.2
20260509134504 57 218 5.0 11.0 0.00 0.00 0.00 75 1004.3
20260509134004 57 215 5.0 8.0 0.00 0.00 0.00 74 1004.3
20260509133525 56 214 6.0 11.0 0.00 0.00 0.00 74 1004.3
20260509133004 56 224 6.0 13.0 0.00 0.00 0.00 74 1004.3
20260509132504 55 333 6.0 9.0 0.00 0.00 0.00 73 1004.4
20260509132004 54 350 6.0 13.0 0.00 0.00 0.00 74 1004.5
20260509131504 53 278 5.0 11.0 0.00 0.00 0.00 74 1004.5
20260509131004 53 223 4.0 9.0 0.00 0.00 0.00 74 1004.5
20260509130525 52 227 2.0 9.0 0.00 0.00 0.00 75 1004.5
20260509130004 52 217 2.0 4.0 0.00 0.00 0.00 75 1004.5
20260509125504 52 203 4.0 8.0 0.00 0.00 0.00 75 1004.7
20260509125004 52 204 4.0 11.0 0.00 0.00 0.00 75 1004.7
20260509124504 51 213 4.0 5.0 0.00 0.00 0.00 77 1004.6
20260509124004 51 207 5.0 12.0 0.00 0.00 0.00 77 1004.7
20260509123504 51 205 4.0 9.0 0.00 0.00 0.00 77 1004.6
20260509123004 51 197 3.0 8.0 0.00 0.00 0.00 77 1004.7
20260509122504 51 205 3.0 8.0 0.00 0.00 0.00 77 1004.8
20260509122004 51 220 3.0 8.0 0.00 0.00 0.00 77 1004.7
20260509121504 51 221 4.0 5.0 0.00 0.00 0.00 77 1004.7
20260509121004 51 218 3.0 9.0 0.00 0.00 0.00 77 1004.8
20260509120504 51 190 2.0 8.0 0.00 0.00 0.00 77 1004.8
20260509120004 51 186 3.0 8.0 0.00 0.00 0.00 77 1004.9
20260509115525 50 210 3.0 11.0 0.00 0.00 0.00 77 1004.8
20260509115004 50 218 4.0 8.0 0.00 0.00 0.00 77 1004.8
20260509114504 50 222 5.0 11.0 0.00 0.00 0.00 77 1004.7
20260509114004 50 222 4.0 9.0 0.00 0.00 0.00 77 1004.7
20260509113504 50 218 4.0 12.0 0.00 0.00 0.00 77 1004.9
20260509113025 50 214 4.0 9.0 0.00 0.00 0.00 77 1005.0
20260509112504 50 204 3.0 7.0 0.00 0.00 0.00 77 1005.0
20260509112004 50 203 4.0 9.0 0.00 0.00 0.00 77 1004.8
20260509111525 50 210 3.0 9.0 0.00 0.00 0.00 77 1004.7
20260509111004 50 229 3.0 11.0 0.00 0.00 0.00 77 1004.8
20260509110525 50 253 3.0 11.0 0.00 0.00 0.00 77 1004.8
20260509110004 50 354 3.0 8.0 0.00 0.00 0.00 77 1004.7
20260509105504 50 360 4.0 8.0 0.00 0.00 0.00 77 1004.6
20260509105004 50 360 3.0 7.0 0.00 0.00 0.00 77 1004.5
20260509104504 50 360 2.0 8.0 0.00 0.00 0.00 77 1004.5
20260509104004 50 360 2.0 4.0 0.00 0.00 0.00 77 1004.5
20260509103525 50 360 2.0 7.0 0.00 0.00 0.00 78 1004.5
20260509103004 50 360 2.0 7.0 0.00 0.00 0.00 78 1004.5
20260509102525 50 360 3.0 7.0 0.00 0.00 0.00 78 1004.5
20260509102004 50 360 3.0 7.0 0.00 0.00 0.00 78 1004.7
20260509101504 50 360 4.0 8.0 0.00 0.00 0.00 78 1004.8
20260509101004 50 360 3.0 8.0 0.00 0.00 0.00 78 1004.7
20260509100504 50 360 3.0 5.0 0.00 0.00 0.00 78 1004.9
20260509100025 50 360 3.0 8.0 0.00 0.00 0.00 78 1004.9
20260509095504 50 360 3.0 7.0 0.00 0.00 0.00 79 1004.9
20260509095004 50 360 3.0 7.0 0.00 0.00 0.00 79 1005.0
20260509094504 50 360 4.0 11.0 0.00 0.00 0.00 79 1004.9
20260509094025 50 360 3.0 11.0 0.00 0.00 0.00 79 1005.0
20260509093504 50 360 3.0 5.0 0.00 0.00 0.00 79 1004.9
20260509093004 50 360 4.0 11.0 0.00 0.00 0.00 79 1005.1
20260509092525 50 360 4.0 8.0 0.00 0.00 0.00 79 1005.0
20260509092004 50 360 3.0 8.0 0.00 0.00 0.00 79 1005.1
20260509091504 50 360 3.0 5.0 0.00 0.00 0.00 79 1005.0
20260509091004 50 360 4.0 8.0 0.00 0.00 0.00 79 1005.1
20260509090526 50 360 4.0 8.0 0.00 0.00 0.00 79 1005.1
20260509090004 50 360 3.0 8.0 0.00 0.00 0.00 79 1005.0
20260509085504 51 360 2.0 7.0 0.00 0.00 0.00 79 1005.2
20260509085004 51 360 1.0 5.0 0.00 0.00 0.00 79 1005.1
20260509084504 51 360 2.0 5.0 0.00 0.00 0.00 79 1005.2
20260509084004 51 360 3.0 7.0 0.00 0.00 0.00 79 1005.2
20260509083504 51 360 3.0 7.0 0.00 0.00 0.00 79 1005.3
20260509083004 51 360 3.0 8.0 0.00 0.00 0.00 80 1005.2
20260509082504 51 360 4.0 11.0 0.00 0.00 0.00 80 1005.1
20260509082025 51 360 4.0 7.0 0.00 0.00 0.00 80 1005.1
20260509081504 51 360 4.0 11.0 0.00 0.00 0.00 80 1005.1
20260509081025 51 360 3.0 7.0 0.00 0.00 0.00 80 1005.1
20260509080504 51 360 4.0 8.0 0.00 0.00 0.00 80 1005.1
20260509080025 50 360 4.0 11.0 0.00 0.00 0.00 80 1005.1
20260509075504 50 360 4.0 8.0 0.00 0.00 0.00 80 1005.1
20260509075025 50 360 4.0 8.0 0.00 0.00 0.00 80 1005.2
20260509074504 51 360 4.0 7.0 0.00 0.00 0.00 81 1005.3
20260509074025 50 360 4.0 11.0 0.00 0.00 0.00 81 1005.3
20260509073504 51 360 4.0 7.0 0.00 0.00 0.00 81 1005.4
20260509073004 50 360 4.0 8.0 0.00 0.00 0.00 81 1005.5
20260509072504 50 360 3.0 7.0 0.00 0.00 0.00 81 1005.4
20260509072004 50 360 4.0 7.0 0.00 0.00 0.00 81 1005.5
20260509071504 50 360 3.0 7.0 0.00 0.00 0.00 81 1005.6
20260509071004 50 360 1.0 4.0 0.00 0.00 0.00 81 1005.7
20260509070504 50 360 2.0 3.0 0.00 0.00 0.00 81 1005.7
20260509070004 50 360 4.0 5.0 0.00 0.00 0.00 81 1005.7
20260509065504 50 360 4.0 7.0 0.00 0.00 0.00 81 1005.7
20260509065004 50 360 3.0 5.0 0.00 0.00 0.00 82 1005.8
20260509064504 50 360 3.0 7.0 0.00 0.00 0.00 82 1005.8
20260509064004 50 360 4.0 11.0 0.00 0.00 0.00 82 1005.9
20260509063504 50 360 4.0 5.0 0.00 0.00 0.00 82 1006.0
20260509063004 49 360 5.0 7.0 0.00 0.00 0.00 83 1006.0
20260509062504 49 360 5.0 8.0 0.00 0.00 0.00 83 1006.0
20260509062004 49 360 4.0 8.0 0.00 0.00 0.00 83 1006.0
20260509061504 49 360 4.0 5.0 0.00 0.00 0.00 83 1006.1
20260509061004 49 360 4.0 7.0 0.00 0.00 0.00 84 1006.1
20260509060504 48 360 3.0 7.0 0.00 0.00 0.00 83 1006.1
20260509060004 48 360 2.0 5.0 0.00 0.00 0.00 83 1006.1
20260509055525 48 360 2.0 4.0 0.00 0.00 0.00 83 1006.2
20260509055004 48 360 3.0 5.0 0.00 0.00 0.00 83 1006.4
20260509054525 48 360 3.0 7.0 0.00 0.00 0.00 83 1006.5
20260509054004 48 20 3.0 5.0 0.00 0.00 0.00 83 1006.5
20260509053525 48 137 3.0 7.0 0.00 0.00 0.00 83 1006.5
20260509053003 48 150 3.0 7.0 0.00 0.00 0.00 83 1006.6
20260509052503 48 152 3.0 7.0 0.00 0.00 0.00 83 1006.7
20260509052004 48 151 4.0 5.0 0.00 0.00 0.00 83 1006.8
20260509051504 48 145 4.0 8.0 0.00 0.00 0.00 83 1006.9
20260509051004 48 138 4.0 8.0 0.00 0.00 0.00 83 1006.9
20260509050504 48 101 4.0 5.0 0.00 0.00 0.00 83 1007.1
20260509050025 48 126 4.0 8.0 0.00 0.00 0.00 83 1007.0
20260509045525 48 123 5.0 8.0 0.00 0.00 0.00 83 1007.0
20260509045024 48 63 5.0 11.0 0.00 0.00 0.00 83 1006.9
20260509044525 48 10 5.0 9.0 0.00 0.00 0.00 83 1007.1
20260509044004 47 360 5.0 8.0 0.00 0.00 0.00 83 1007.0
20260509043525 47 360 5.0 11.0 0.00 0.00 0.00 83 1007.1
20260509043004 47 360 4.0 7.0 0.00 0.00 0.00 84 1007.2
20260509042504 47 360 5.0 8.0 0.00 0.00 0.00 84 1007.2
20260509042025 46 360 5.0 8.0 0.00 0.00 0.00 84 1007.3
20260509041503 46 360 4.0 7.0 0.00 0.00 0.00 84 1007.3
20260509041003 46 360 3.0 8.0 0.00 0.00 0.00 84 1007.4
20260509040504 46 360 3.0 5.0 0.00 0.00 0.00 83 1007.6
20260509040005 46 360 3.0 5.0 0.00 0.00 0.00 83 1007.6
20260509035504 46 360 3.0 4.0 0.00 0.00 0.00 83 1007.6
20260509035004 46 360 3.0 4.0 0.00 0.00 0.00 83 1007.6
20260509034504 46 360 3.0 4.0 0.00 0.00 0.00 83 1007.7
20260509034004 46 360 3.0 4.0 0.00 0.00 0.00 82 1007.7
20260509033504 46 360 3.0 5.0 0.00 0.00 0.00 82 1007.7
20260509033004 46 360 3.0 5.0 0.00 0.00 0.00 82 1007.7
20260509032504 46 360 4.0 8.0 0.00 0.00 0.00 82 1007.8
20260509032026 47 360 3.0 8.0 0.00 0.00 0.00 81 1007.8
20260509031504 47 360 3.0 7.0 0.00 0.00 0.00 80 1007.9
20260509031004 47 360 3.0 5.0 0.00 0.00 0.00 80 1007.9
20260509030526 47 360 3.0 5.0 0.00 0.00 0.00 80 1007.9
20260509030004 48 123 3.0 5.0 0.00 0.00 0.00 79 1008.0
20260509025504 48 161 3.0 5.0 0.00 0.00 0.00 79 1008.1
20260509025026 48 163 4.0 8.0 0.00 0.00 0.00 79 1008.1
20260509024524 48 166 4.0 7.0 0.00 0.00 0.00 79 1008.2
20260509024003 48 166 4.0 8.0 0.00 0.00 0.00 79 1008.2
20260509023504 49 165 4.0 8.0 0.00 0.00 0.00 78 1008.3
20260509023004 49 166 5.0 8.0 0.00 0.00 0.00 78 1008.2
20260509022504 49 167 6.0 8.0 0.00 0.00 0.00 78 1008.3
20260509022025 49 172 6.0 12.0 0.00 0.00 0.00 78 1008.3
20260509021525 49 189 5.0 9.0 0.00 0.00 0.00 78 1008.3
20260509021004 49 202 4.0 9.0 0.00 0.00 0.00 78 1008.3
20260509020503 49 208 3.0 5.0 0.00 0.00 0.00 78 1008.2
20260509020004 49 208 2.0 5.0 0.00 0.00 0.00 78 1008.3
20260509015503 49 204 3.0 7.0 0.00 0.00 0.00 77 1008.3
20260509015004 49 204 4.0 9.0 0.00 0.00 0.00 77 1008.2
20260509014503 49 201 3.0 8.0 0.00 0.00 0.00 75 1008.2
20260509014003 49 194 3.0 7.0 0.00 0.00 0.00 74 1008.1
20260509013504 49 193 2.0 5.0 0.00 0.00 0.00 74 1008.1
20260509013003 50 192 2.0 4.0 0.00 0.00 0.00 74 1008.0
20260509012504 50 193 2.0 7.0 0.00 0.00 0.00 73 1007.8
20260509012025 50 194 2.0 5.0 0.00 0.00 0.00 72 1007.7
20260509011504 51 195 3.0 5.0 0.00 0.00 0.00 72 1007.6
20260509011003 51 195 2.0 5.0 0.00 0.00 0.00 72 1007.6
20260509010503 51 195 2.0 4.0 0.00 0.00 0.00 71 1007.7
20260509010025 51 198 3.0 4.0 0.00 0.00 0.00 71 1007.6
20260509005503 51 202 4.0 7.0 0.00 0.00 0.00 70 1007.6
20260509005004 51 197 4.0 11.0 0.00 0.00 0.00 70 1007.6
20260509004525 52 198 4.0 8.0 0.00 0.00 0.00 70 1007.6
20260509004024 52 171 4.0 8.0 0.00 0.00 0.00 70 1007.5
20260509003504 52 167 4.0 8.0 0.00 0.00 0.00 70 1007.5
20260509003003 52 176 6.0 8.0 0.00 0.00 0.00 70 1007.5
20260509002503 52 185 6.0 12.0 0.00 0.00 0.00 70 1007.5
20260509002003 52 194 5.0 9.0 0.00 0.00 0.00 69 1007.5
20260509001503 53 195 5.0 11.0 0.00 0.00 0.00 68 1007.6
20260509001004 53 197 4.0 11.0 0.00 0.00 0.00 68 1007.6
20260509000504 53 285 4.0 9.0 0.00 0.00 0.00 67 1007.5
20260509000025 53 359 5.0 8.0 0.00 0.00 0.00 67 1007.6
20260508235503 53 360 5.0 12.0 0.00 0.00 0.00 66 1007.6
20260508235003 54 360 6.0 11.0 0.00 0.00 0.00 66 1007.6
20260508234524 54 360 6.0 15.0 0.00 0.00 0.00 66 1007.7
20260508234003 54 360 6.0 15.0 0.00 0.00 0.00 64 1007.8
20260508233503 54 360 6.0 13.0 0.00 0.00 0.00 63 1007.7
20260508233003 54 360 6.0 11.0 0.00 0.00 0.00 64 1007.7
20260508232504 55 360 7.0 13.0 0.00 0.00 0.00 64 1007.7
20260508232003 55 360 8.0 13.0 0.00 0.00 0.00 64 1007.5
20260508231503 55 360 7.0 15.0 0.00 0.00 0.00 63 1007.5
20260508231024 55 360 6.0 15.0 0.00 0.00 0.00 64 1007.6
20260508230503 55 360 7.0 15.0 0.00 0.00 0.00 63 1007.6
20260508230024 56 360 6.0 15.0 0.00 0.00 0.00 64 1007.6
20260508225503 56 360 7.0 12.0 0.00 0.00 0.00 63 1007.5
20260508225024 56 360 7.0 13.0 0.00 0.00 0.00 63 1007.6
20260508224524 56 360 7.0 16.0 0.00 0.00 0.00 63 1007.5
20260508224004 57 360 7.0 16.0 0.00 0.00 0.00 62 1007.5
20260508223504 57 360 5.0 13.0 0.00 0.00 0.00 62 1007.7
20260508223003 57 360 5.0 11.0 0.00 0.00 0.00 62 1007.7
20260508222524 57 360 6.0 11.0 0.00 0.00 0.00 62 1007.7
20260508222003 57 360 8.0 16.0 0.00 0.00 0.00 62 1007.8
20260508221503 57 360 8.0 19.0 0.00 0.00 0.00 62 1007.8
20260508221003 57 360 8.0 15.0 0.00 0.00 0.00 61 1007.8
20260508220524 57 360 9.0 15.0 0.00 0.00 0.00 62 1007.7
20260508220003 58 360 8.0 17.0 0.00 0.00 0.00 61 1007.7
20260508215524 58 360 7.0 15.0 0.00 0.00 0.00 62 1007.8
20260508215004 57 360 8.0 15.0 0.00 0.00 0.00 60 1007.7
20260508214504 57 360 9.0 15.0 0.00 0.00 0.00 61 1007.7
20260508214003 58 356 10.0 17.0 0.00 0.00 0.00 59 1007.8
20260508213503 58 266 10.0 17.0 0.00 0.00 0.00 60 1007.8
20260508213003 58 215 9.0 20.0 0.00 0.00 0.00 58 1008.0
20260508212503 59 211 9.0 20.0 0.00 0.00 0.00 58 1008.0
20260508212004 59 208 9.0 19.0 0.00 0.00 0.00 36 1008.0
20260508211524 59 211 8.0 19.0 0.00 0.00 0.00 58 1007.8
20260508211003 59 209 6.0 16.0 0.00 0.00 0.00 58 1007.8
20260508210503 59 216 6.0 11.0 0.00 0.00 0.00 59 1008.0
20260508210003 60 224 6.0 19.0 0.00 0.00 0.00 59 1008.0
20260508205503 60 221 6.0 9.0 0.00 0.00 0.00 58 1007.8